Whiteclay, NE

9:16 PM MDT on September 30, 2016 (GMT -0600)
Pine Ridge

Weather History for KIEN - December, 2011

Change the Weather History Date:

Wednesday, December 28, 2011

  Actual Average Record
Temperature  
Mean Temperature 37 °F 22 °F  
Max Temperature 51 °F 36 °F 63 °F (1999)
Min Temperature 23 °F 9 °F -17 °F (2012)
Degree Days  
Heating Degree Days 28 43  
Month to date heating degree days 1136 1174  
Since 1 July heating degree days 2710 2864  
Cooling Degree Days 0 0  
Month to date cooling degree days 0 0  
Year to date cooling degree days 818 717  
Moisture  
Dew Point 23 °F    
Average Humidity 56    
Maximum Humidity 75    
Minimum Humidity 36    
Precipitation  
Precipitation 0.00 in 0.02 in 0.07 in (2006)
Month to date precipitation 0.06 0.32  
Year to date precipitation 18.36 17.49  
Sea Level Pressure  
Sea Level Pressure 29.92 in    
Wind  
Wind Speed 8 mph (WSW)    
Max Wind Speed 22 mph    
Max Gust Speed 29 mph    
Visibility 10 miles    
Events      
T = Trace of Precipitation, MM = Missing Value Source: NWS Daily Summary

Daily Weather History Graph

Daily Weather History Graph

Search for Another Location

Airport or City:

Trip Planner

Search our weather history database for the weather conditions in past years. The results will help you decide how hot, cold, wet, or windy it might be!

Date:

Astronomy

Dec. 28, 2011 Rise Set
Actual Time 7:20 AM MST 4:22 PM MST
Civil Twilight 6:48 AM MST 4:54 PM MST
Nautical Twilight 6:12 AM MST 5:30 PM MST
Astronomical Twilight 5:38 AM MST 6:05 PM MST
Moon 9:41 AM MST (12/28) 9:08 PM MST (12/28)
Length of Visible Light 10h 06m
Length of Day
9h 01m
Waxing Crescent, 18% of the Moon is Illuminated
Dec 28
Waxing Crescent
Dec 31
First Quarter
Jan 9
Full
Jan 16
Last Quarter
Jan 23
New

Hourly Weather History & Observations

Time (MST) Temp. Windchill Dew Point Humidity Pressure Visibility Wind Dir Wind Speed Gust Speed Precip Events Conditions
1:52 AM 24.1 °F 19.7 °F 18.0 °F 77% 30.03 in 10.0 mi West 3.5 mph - N/A   Clear
2:52 AM 28.0 °F - 19.0 °F 69% 30.00 in 10.0 mi Calm Calm - N/A   Scattered Clouds
3:52 AM 33.1 °F 24.9 °F 21.0 °F 61% 29.99 in 10.0 mi WSW 10.4 mph - N/A   Partly Cloudy
4:52 AM 30.0 °F 22.4 °F 19.0 °F 64% 30.01 in 10.0 mi WSW 8.1 mph - N/A   Clear
5:52 AM 30.9 °F 24.3 °F 19.9 °F 64% 30.01 in 10.0 mi West 6.9 mph - N/A   Clear
6:52 AM 30.0 °F 22.4 °F 19.0 °F 64% 29.99 in 10.0 mi WSW 8.1 mph - N/A   Clear
7:52 AM 27.0 °F - 19.0 °F 72% 30.00 in 10.0 mi Calm Calm - N/A   Clear
8:52 AM 35.1 °F 31.0 °F 21.0 °F 57% 29.97 in 10.0 mi SW 4.6 mph - N/A   Clear
9:52 AM 41.0 °F 34.3 °F 19.9 °F 43% 29.95 in 10.0 mi WSW 11.5 mph - N/A   Clear
10:52 AM 44.1 °F 38.1 °F 21.0 °F 40% 29.91 in 10.0 mi WSW 11.5 mph - N/A   Clear
11:52 AM 46.0 °F 39.6 °F 21.0 °F 37% 29.86 in 10.0 mi West 15.0 mph - N/A   Partly Cloudy
12:52 PM 48.0 °F - 23.0 °F 37% 29.85 in 10.0 mi West 15.0 mph 24.2 mph N/A   Mostly Cloudy
1:52 PM 50.0 °F - 25.0 °F 38% 29.84 in 10.0 mi West 16.1 mph 24.2 mph N/A   Clear
2:52 PM 48.9 °F - 26.1 °F 41% 29.83 in 10.0 mi West 12.7 mph - N/A   Clear
3:52 PM 48.0 °F - 27.0 °F 44% 29.83 in 10.0 mi WNW 10.4 mph - N/A   Clear
5:52 PM 41.0 °F 38.0 °F 26.1 °F 55% 29.87 in 10.0 mi Variable 4.6 mph - N/A   Clear
6:52 PM 42.1 °F - 27.0 °F 55% 29.88 in 10.0 mi Calm Calm - N/A   Clear
7:52 PM 42.1 °F 37.1 °F 27.0 °F 55% 29.89 in 10.0 mi WSW 8.1 mph - N/A   Clear
8:52 PM 39.0 °F 34.0 °F 27.0 °F 62% 29.88 in 10.0 mi SSW 6.9 mph - N/A   Clear
9:52 PM 37.9 °F 31.5 °F 27.0 °F 65% 29.87 in 10.0 mi WSW 9.2 mph - N/A   Clear
10:52 PM 36.0 °F 30.3 °F 27.0 °F 70% 29.86 in 10.0 mi West 6.9 mph - N/A   Clear
11:52 PM 35.1 °F 31.0 °F 26.1 °F 70% 29.84 in 10.0 mi West 4.6 mph - N/A   Clear